QFA772 PAYA-PAFA

Flight info

Callsign QFA772
Flight time 1h 10m
Altitude 36000
Route YAK J507 TOVAD Q811 OYELI RDFLG HRDNG4
Aircraft B738/M-L/LB1

Departure

Time 2026-04-28 10:52
Airport Yakutat Airport (PAYA)

Arrival

Time 2026-04-28 12:03
Airport Fairbanks International Airport (PAFA)
Time Latitude Longitude Altitude Speed Heading
2026-04-28 10:03 59.50936 -139.66867 48 ft 0 kts 316°
2026-04-28 10:46 59.50929 -139.66855 48 ft 2 kts 316°
2026-04-28 10:46 59.50917 -139.66831 48 ft 3 kts 316°
2026-04-28 10:46 59.50902 -139.66804 48 ft 3 kts 316°
2026-04-28 10:47 59.50887 -139.66776 48 ft 3 kts 316°
2026-04-28 10:47 59.50881 -139.66764 48 ft 0 kts 316°
2026-04-28 10:49 59.50881 -139.66765 48 ft 0 kts 316°
2026-04-28 10:49 59.50887 -139.66770 48 ft 5 kts 337°
2026-04-28 10:49 59.50951 -139.66680 48 ft 18 kts 72°
2026-04-28 10:49 59.50930 -139.66453 48 ft 15 kts 99°
2026-04-28 10:50 59.50967 -139.66308 48 ft 11 kts 41°
2026-04-28 10:50 59.51028 -139.66283 48 ft 12 kts 336°
2026-04-28 10:50 59.51096 -139.66409 48 ft 9 kts 321°
2026-04-28 10:50 59.51110 -139.66397 48 ft 1 kts 117°
2026-04-28 10:51 59.51103 -139.66384 48 ft 3 kts 134°
2026-04-28 10:51 59.51095 -139.66367 48 ft 1 kts 134°
2026-04-28 10:51 59.51094 -139.66365 48 ft 0 kts 134°
2026-04-28 10:52 59.51053 -139.66283 48 ft 37 kts 134°
2026-04-28 10:52 59.50668 -139.65520 48 ft 117 kts 135°
2026-04-28 10:52 59.49940 -139.64099 210 ft 165 kts 135°
2026-04-28 10:52 59.49093 -139.62531 1047 ft 172 kts 137°
2026-04-28 10:53 59.48204 -139.60826 1758 ft 191 kts 124°
2026-04-28 10:53 59.47931 -139.58222 2431 ft 208 kts 79°
2026-04-28 10:53 59.48701 -139.55746 3091 ft 226 kts 38°
2026-04-28 10:53 59.50219 -139.54736 3770 ft 244 kts 359°
2026-04-28 10:54 59.51900 -139.55600 4496 ft 257 kts 336°
2026-04-28 10:54 59.53536 -139.57136 5412 ft 263 kts 333°
2026-04-28 10:54 59.55175 -139.58814 6343 ft 268 kts 330°
2026-04-28 10:54 59.56264 -139.59993 6960 ft 271 kts 330°
2026-04-28 10:55 59.58030 -139.61881 7918 ft 276 kts 331°
2026-04-28 10:55 59.59736 -139.63678 8807 ft 280 kts 330°
2026-04-28 10:55 59.61192 -139.66210 9611 ft 283 kts 300°
2026-04-28 10:55 59.61955 -139.69764 9957 ft 280 kts 288°
2026-04-28 10:56 59.63053 -139.72899 9986 ft 283 kts 321°
2026-04-28 10:56 59.64839 -139.74184 10892 ft 275 kts 350°
2026-04-28 10:56 59.66742 -139.74594 11759 ft 276 kts 352°
2026-04-28 10:56 59.68657 -139.75077 12526 ft 279 kts 345°
2026-04-28 10:57 59.70544 -139.76035 13274 ft 281 kts 339°
2026-04-28 10:57 59.72386 -139.77250 14007 ft 285 kts 336°
2026-04-28 10:57 59.74274 -139.78526 14738 ft 289 kts 337°
2026-04-28 10:57 59.76207 -139.79745 15446 ft 294 kts 338°
2026-04-28 10:58 59.78184 -139.80915 16134 ft 299 kts 338°
2026-04-28 10:58 59.80198 -139.82087 16803 ft 304 kts 338°
2026-04-28 10:58 59.82242 -139.83290 17464 ft 309 kts 338°
2026-04-28 10:58 59.84313 -139.84531 18118 ft 313 kts 337°
2026-04-28 10:59 59.86383 -139.85782 18769 ft 317 kts 336°
2026-04-28 10:59 59.88505 -139.87065 19425 ft 320 kts 337°
2026-04-28 10:59 59.90646 -139.88355 20070 ft 324 kts 337°
2026-04-28 10:59 59.92813 -139.89658 20733 ft 327 kts 336°
2026-04-28 11:00 59.94999 -139.90976 21368 ft 330 kts 337°
2026-04-28 11:00 59.97209 -139.92313 21888 ft 336 kts 336°
2026-04-28 11:00 59.99466 -139.93683 22015 ft 340 kts 337°
2026-04-28 11:00 60.01717 -139.95043 22721 ft 339 kts 336°
2026-04-28 11:01 60.03979 -139.96413 23350 ft 341 kts 336°
2026-04-28 11:01 60.06228 -139.97783 23936 ft 344 kts 336°
2026-04-28 11:01 60.08537 -139.99194 24366 ft 354 kts 336°
2026-04-28 11:01 60.10942 -140.00675 24583 ft 369 kts 337°
2026-04-28 11:02 60.13427 -140.02197 25004 ft 378 kts 337°
2026-04-28 11:02 60.15966 -140.03742 25540 ft 384 kts 337°
2026-04-28 11:02 60.18535 -140.05305 26103 ft 388 kts 337°
2026-04-28 11:02 60.21129 -140.06891 26673 ft 391 kts 337°
2026-04-28 11:03 60.23709 -140.08478 27216 ft 395 kts 337°
2026-04-28 11:03 60.26347 -140.10108 27752 ft 398 kts 337°
2026-04-28 11:03 60.29008 -140.11752 28284 ft 401 kts 337°
2026-04-28 11:03 60.31689 -140.13410 28792 ft 405 kts 337°
2026-04-28 11:04 60.34394 -140.15084 29281 ft 408 kts 337°
2026-04-28 11:04 60.37121 -140.16775 29742 ft 412 kts 337°
2026-04-28 11:04 60.39869 -140.18484 30203 ft 415 kts 337°
2026-04-28 11:04 60.42599 -140.20184 30646 ft 417 kts 337°
2026-04-28 11:05 60.45421 -140.21944 31091 ft 420 kts 337°
2026-04-28 11:05 60.48178 -140.23666 31514 ft 422 kts 337°
2026-04-28 11:05 60.50993 -140.25428 31930 ft 425 kts 337°
2026-04-28 11:05 60.53825 -140.27204 32316 ft 427 kts 337°
2026-04-28 11:06 60.56674 -140.28994 32688 ft 430 kts 338°
2026-04-28 11:06 60.59538 -140.30797 33039 ft 432 kts 337°
2026-04-28 11:06 60.62418 -140.32613 33393 ft 434 kts 337°
2026-04-28 11:06 60.65272 -140.34415 33729 ft 436 kts 338°
2026-04-28 11:07 60.68176 -140.36253 34055 ft 438 kts 338°
2026-04-28 11:07 60.71094 -140.38104 34358 ft 440 kts 338°
2026-04-28 11:07 60.74029 -140.39970 34624 ft 443 kts 338°
2026-04-28 11:07 60.76982 -140.41851 34893 ft 446 kts 338°
2026-04-28 11:08 60.79945 -140.43741 35140 ft 448 kts 338°
2026-04-28 11:08 60.82932 -140.45649 35381 ft 451 kts 338°
2026-04-28 11:08 60.85936 -140.47571 35612 ft 453 kts 338°
2026-04-28 11:08 60.88955 -140.49508 35834 ft 456 kts 338°
2026-04-28 11:09 60.91952 -140.51436 35982 ft 460 kts 338°
2026-04-28 11:09 60.98132 -140.55426 35991 ft 471 kts 338°
2026-04-28 11:10 61.04425 -140.59495 35988 ft 475 kts 338°
2026-04-28 11:10 61.10700 -140.63566 35983 ft 470 kts 338°
2026-04-28 11:11 61.16876 -140.67605 35981 ft 469 kts 338°
2026-04-28 11:11 61.23094 -140.71684 35976 ft 469 kts 338°
2026-04-28 11:12 61.29313 -140.75775 35975 ft 469 kts 338°
2026-04-28 11:12 61.35537 -140.79890 35973 ft 469 kts 338°
2026-04-28 11:13 61.41720 -140.83995 35956 ft 469 kts 338°
2026-04-28 11:13 61.47942 -140.88146 35943 ft 469 kts 338°
2026-04-28 11:14 61.54163 -140.92331 35939 ft 470 kts 338°
2026-04-28 11:14 61.60351 -140.96725 35939 ft 466 kts 330°
2026-04-28 11:15 61.65717 -141.03818 35941 ft 458 kts 320°
2026-04-28 11:15 61.71147 -141.11017 35935 ft 463 kts 324°
2026-04-28 11:16 61.76633 -141.18125 35929 ft 462 kts 321°
2026-04-28 11:16 61.81991 -141.25607 35924 ft 462 kts 321°
2026-04-28 11:17 61.87355 -141.32932 35920 ft 463 kts 322°
2026-04-28 11:17 61.92787 -141.40304 35917 ft 463 kts 321°
2026-04-28 11:18 61.98195 -141.47782 35914 ft 464 kts 321°
2026-04-28 11:18 62.03577 -141.55227 35912 ft 464 kts 321°
2026-04-28 11:19 62.08993 -141.62729 35909 ft 464 kts 321°
2026-04-28 11:19 62.14401 -141.70276 35906 ft 465 kts 321°
2026-04-28 11:20 62.19807 -141.77846 35904 ft 465 kts 321°
2026-04-28 11:20 62.25214 -141.85446 35898 ft 465 kts 321°
2026-04-28 11:21 62.30577 -141.93023 35896 ft 464 kts 321°
2026-04-28 11:21 62.35971 -142.00675 35893 ft 464 kts 321°
2026-04-28 11:22 62.41365 -142.08360 35891 ft 465 kts 321°
2026-04-28 11:22 62.46755 -142.16074 35890 ft 465 kts 321°
2026-04-28 11:23 62.52134 -142.23805 35889 ft 465 kts 321°
2026-04-28 11:23 62.57479 -142.31522 35888 ft 464 kts 321°
2026-04-28 11:24 62.62849 -142.39308 35888 ft 464 kts 320°
2026-04-28 11:24 62.68216 -142.47127 35887 ft 464 kts 320°
2026-04-28 11:25 62.73571 -142.54958 35887 ft 464 kts 320°
2026-04-28 11:25 62.78925 -142.62828 35886 ft 464 kts 320°
2026-04-28 11:26 62.84233 -142.70663 35886 ft 464 kts 320°
2026-04-28 11:26 62.89573 -142.78578 35886 ft 463 kts 320°
2026-04-28 11:27 62.94905 -142.86521 35886 ft 463 kts 320°
2026-04-28 11:27 63.00238 -142.94499 35884 ft 464 kts 320°
2026-04-28 11:28 63.05532 -143.02452 35883 ft 463 kts 320°
2026-04-28 11:28 63.10854 -143.10487 35882 ft 463 kts 320°
2026-04-28 11:29 63.16170 -143.18548 35880 ft 464 kts 320°
2026-04-28 11:29 63.21493 -143.26655 35879 ft 464 kts 320°
2026-04-28 11:30 63.26767 -143.34724 35877 ft 463 kts 319°
2026-04-28 11:30 63.34723 -143.46968 35875 ft 463 kts 319°
2026-04-28 11:31 63.40020 -143.55166 35873 ft 464 kts 319°
2026-04-28 11:31 63.45310 -143.63390 35871 ft 464 kts 319°
2026-04-28 11:32 63.50566 -143.71599 35868 ft 464 kts 319°
2026-04-28 11:32 63.55847 -143.79891 35866 ft 463 kts 319°
2026-04-28 11:33 63.58372 -143.84303 35754 ft 457 kts 311°
2026-04-28 11:33 63.60494 -143.89399 35180 ft 437 kts 300°
2026-04-28 11:33 63.62267 -143.94889 34673 ft 432 kts 298°
2026-04-28 11:33 63.63992 -144.00393 34184 ft 429 kts 297°
2026-04-28 11:34 63.65696 -144.05868 33706 ft 425 kts 297°
2026-04-28 11:34 63.67373 -144.11224 33243 ft 423 kts 297°
2026-04-28 11:34 63.69065 -144.16594 32777 ft 420 kts 297°
2026-04-28 11:34 63.70749 -144.21938 32315 ft 416 kts 296°
2026-04-28 11:35 63.72416 -144.27253 31856 ft 413 kts 296°
2026-04-28 11:35 63.74064 -144.32539 31394 ft 410 kts 296°
2026-04-28 11:35 63.75696 -144.37795 30949 ft 407 kts 296°
2026-04-28 11:35 63.77316 -144.43019 30500 ft 404 kts 295°
2026-04-28 11:36 63.78925 -144.48213 30054 ft 402 kts 295°
2026-04-28 11:36 63.80522 -144.53376 29605 ft 399 kts 295°
2026-04-28 11:36 63.82086 -144.58448 29170 ft 397 kts 295°
2026-04-28 11:36 63.83662 -144.63571 28736 ft 395 kts 295°
2026-04-28 11:37 63.85229 -144.68681 28299 ft 394 kts 295°
2026-04-28 11:37 63.86791 -144.73782 27865 ft 393 kts 296°
2026-04-28 11:37 63.88344 -144.78866 27431 ft 392 kts 296°
2026-04-28 11:37 63.89896 -144.83959 26998 ft 392 kts 296°
2026-04-28 11:38 63.91446 -144.89052 26565 ft 392 kts 296°
2026-04-28 11:38 63.92992 -144.94148 26133 ft 392 kts 296°
2026-04-28 11:38 63.94516 -144.99181 25706 ft 391 kts 297°
2026-04-28 11:38 63.96037 -145.04178 25278 ft 378 kts 297°
2026-04-28 11:39 63.97510 -145.09014 24867 ft 366 kts 297°
2026-04-28 11:39 63.98929 -145.13713 24469 ft 354 kts 296°
2026-04-28 11:39 64.00297 -145.18284 24084 ft 344 kts 296°
2026-04-28 11:39 64.01624 -145.22730 23706 ft 334 kts 297°
2026-04-28 11:40 64.02912 -145.27050 23343 ft 325 kts 297°
2026-04-28 11:40 64.04165 -145.31245 22989 ft 315 kts 297°
2026-04-28 11:40 64.05377 -145.35310 22647 ft 306 kts 297°
2026-04-28 11:40 64.06554 -145.39264 22315 ft 296 kts 297°
2026-04-28 11:41 64.07679 -145.43052 21997 ft 287 kts 296°
2026-04-28 11:41 64.08783 -145.46776 21684 ft 279 kts 296°
2026-04-28 11:41 64.09852 -145.50388 21382 ft 270 kts 296°
2026-04-28 11:41 64.10886 -145.53887 21087 ft 261 kts 296°
2026-04-28 11:42 64.11885 -145.57272 20803 ft 252 kts 296°
2026-04-28 11:42 64.12848 -145.60541 20528 ft 243 kts 296°
2026-04-28 11:42 64.13763 -145.63650 20268 ft 234 kts 295°
2026-04-28 11:42 64.14654 -145.66681 20014 ft 225 kts 295°
2026-04-28 11:43 64.15508 -145.69591 19769 ft 215 kts 294°
2026-04-28 11:43 64.16323 -145.72369 19535 ft 205 kts 294°
2026-04-28 11:43 64.17101 -145.75023 19278 ft 197 kts 294°
2026-04-28 11:43 64.17859 -145.77633 18843 ft 198 kts 294°
2026-04-28 11:44 64.18628 -145.80296 18383 ft 201 kts 294°
2026-04-28 11:44 64.19397 -145.82932 18127 ft 195 kts 295°
2026-04-28 11:44 64.20129 -145.85424 17930 ft 188 kts 294°
2026-04-28 11:44 64.20856 -145.87927 17531 ft 191 kts 294°
2026-04-28 11:45 64.21600 -145.90510 17130 ft 195 kts 295°
2026-04-28 11:45 64.22344 -145.93068 16898 ft 189 kts 295°
2026-04-28 11:45 64.23083 -145.95619 16676 ft 201 kts 296°
2026-04-28 11:45 64.23890 -145.98444 16731 ft 222 kts 296°
2026-04-28 11:46 64.24783 -146.01563 16774 ft 245 kts 297°
2026-04-28 11:46 64.25768 -146.04978 16768 ft 269 kts 298°
2026-04-28 11:46 64.26858 -146.08767 16569 ft 300 kts 298°
2026-04-28 11:46 64.28077 -146.13007 16197 ft 333 kts 299°
2026-04-28 11:47 64.29362 -146.17445 15813 ft 340 kts 300°
2026-04-28 11:47 64.30679 -146.21998 15429 ft 343 kts 300°
2026-04-28 11:47 64.31969 -146.26625 15045 ft 343 kts 298°
2026-04-28 11:47 64.33227 -146.31283 14665 ft 342 kts 298°
2026-04-28 11:48 64.34478 -146.35942 14285 ft 341 kts 298°
2026-04-28 11:48 64.35732 -146.40574 13906 ft 337 kts 299°
2026-04-28 11:48 64.36975 -146.45127 13432 ft 334 kts 299°
2026-04-28 11:48 64.38205 -146.49635 13004 ft 329 kts 300°
2026-04-28 11:49 64.39393 -146.54011 12644 ft 323 kts 300°
2026-04-28 11:49 64.40619 -146.58559 12447 ft 337 kts 300°
2026-04-28 11:49 64.41832 -146.63068 12178 ft 331 kts 299°
2026-04-28 11:49 64.43032 -146.67515 11883 ft 321 kts 299°
2026-04-28 11:50 64.44214 -146.71911 11555 ft 327 kts 299°
2026-04-28 11:50 64.45420 -146.76415 11198 ft 329 kts 299°
2026-04-28 11:50 64.46628 -146.80931 10834 ft 328 kts 299°
2026-04-28 11:50 64.47815 -146.85369 10477 ft 320 kts 299°
2026-04-28 11:51 64.48958 -146.89643 10347 ft 304 kts 299°
2026-04-28 11:51 64.50029 -146.93661 10224 ft 290 kts 299°
2026-04-28 11:51 64.51065 -146.97564 10100 ft 281 kts 298°
2026-04-28 11:51 64.52084 -147.01419 9980 ft 278 kts 298°
2026-04-28 11:52 64.53097 -147.05260 9711 ft 282 kts 298°
2026-04-28 11:52 64.54117 -147.09123 9400 ft 278 kts 299°
2026-04-28 11:52 64.55121 -147.12925 9095 ft 274 kts 299°
2026-04-28 11:52 64.56116 -147.16702 8805 ft 273 kts 299°
2026-04-28 11:53 64.57106 -147.20466 8511 ft 272 kts 299°
2026-04-28 11:53 64.58091 -147.24224 8220 ft 272 kts 299°
2026-04-28 11:53 64.59058 -147.27917 7933 ft 270 kts 299°
2026-04-28 11:53 64.60031 -147.31650 7643 ft 269 kts 299°
2026-04-28 11:54 64.61001 -147.35368 7356 ft 268 kts 299°
2026-04-28 11:54 64.61967 -147.39069 7084 ft 266 kts 299°
2026-04-28 11:54 64.62892 -147.42689 6978 ft 253 kts 294°
2026-04-28 11:54 64.63455 -147.46533 6587 ft 257 kts 282°
2026-04-28 11:55 64.63875 -147.50704 5960 ft 266 kts 279°
2026-04-28 11:55 64.64248 -147.54808 5880 ft 253 kts 279°
2026-04-28 11:55 64.64605 -147.58719 5788 ft 240 kts 279°
2026-04-28 11:55 64.64949 -147.62393 5692 ft 229 kts 279°
2026-04-28 11:56 64.65237 -147.65974 5594 ft 223 kts 275°
2026-04-28 11:56 64.65422 -147.69581 5365 ft 222 kts 273°
2026-04-28 11:56 64.65570 -147.73129 5143 ft 217 kts 272°
2026-04-28 11:56 64.65711 -147.76604 4940 ft 213 kts 272°
2026-04-28 11:57 64.65854 -147.79999 4723 ft 208 kts 273°
2026-04-28 11:57 64.65998 -147.83299 4521 ft 201 kts 273°
2026-04-28 11:57 64.66137 -147.86480 4320 ft 193 kts 273°
2026-04-28 11:57 64.66266 -147.89492 4133 ft 186 kts 273°
2026-04-28 11:58 64.66394 -147.92473 3953 ft 185 kts 273°
2026-04-28 11:58 64.66522 -147.95437 3772 ft 183 kts 275°
2026-04-28 11:58 64.66877 -147.98321 3511 ft 186 kts 294°
2026-04-28 11:58 64.67599 -148.00796 3258 ft 184 kts 313°
2026-04-28 11:59 64.68603 -148.02608 3023 ft 181 kts 331°
2026-04-28 11:59 64.69733 -148.03581 2800 ft 168 kts 349°
2026-04-28 11:59 64.70883 -148.03753 2580 ft 162 kts
2026-04-28 11:59 64.71931 -148.03228 2377 ft 153 kts 21°
2026-04-28 12:00 64.72857 -148.02126 2190 ft 147 kts 35°
2026-04-28 12:00 64.73654 -148.00690 2028 ft 143 kts 39°
2026-04-28 12:00 64.74437 -147.99259 1878 ft 143 kts 39°
2026-04-28 12:00 64.75222 -147.97824 1720 ft 143 kts 38°
2026-04-28 12:01 64.75999 -147.96412 1514 ft 139 kts 38°
2026-04-28 12:01 64.76767 -147.95031 1288 ft 138 kts 37°
2026-04-28 12:01 64.77524 -147.93645 1115 ft 138 kts 38°
2026-04-28 12:01 64.78278 -147.92246 934 ft 138 kts 39°
2026-04-28 12:02 64.79032 -147.90858 772 ft 137 kts 38°
2026-04-28 12:02 64.79763 -147.89512 594 ft 133 kts 38°
2026-04-28 12:02 64.80481 -147.88192 451 ft 128 kts 38°
2026-04-28 12:02 64.81054 -147.87135 448 ft 77 kts 37°
2026-04-28 12:03 64.81336 -147.86617 448 ft 25 kts 38°
2026-04-28 12:03 64.81424 -147.86453 448 ft 17 kts 38°
2026-04-28 12:03 64.81526 -147.86263 448 ft 20 kts 36°
2026-04-28 12:03 64.81647 -147.86255 448 ft 17 kts 310°
2026-04-28 12:04 64.81674 -147.86454 448 ft 11 kts 266°
2026-04-28 12:04 64.81703 -147.86576 448 ft 7 kts 311°
2026-04-28 12:04 64.81724 -147.86630 448 ft 0 kts 311°